STARLINK-36958, 68163

Orbit data source: Space-Track

STARLINK-36958, 68163 is a payload satellite owned by SpaceX/Seattle (US) in SSO that was launched on Fri, 13 Mar 2026 UTC via an FALCON 9 launch vehicle from the Air Force Western Test Range (AFWTR). Payload-class satellites include a variety of spacecraft equipped with specific instruments for various scientific and technological missions. These include communications satellites like Starlink; space stations such as the ISS; scientific satellites like the Hubble; Earth observation satellites from companies like Planet Labs, Umbra, and HawkEye 360; GPS; miniature CubeSats for education and research; and military/defense satellites.

Loading next visibility...
Identifier
68163, 2026-049X
Orbit
SSO
Country
Flag of USUS
Related business
Manufacturer
SpaceX/Seattle
Mission
Operational spacecraft
Bus & Motor
STARLINK V2MO, Unknown motor
Mass
575 kg wet, ~530 kg dry
Launch date (UTC)
2026-03-13 (3 months ago)
Launch vehicle
FALCON 9
Launch site
Air Force Western Test Range (AFWTR)
Object type
Payload
Rocket body
Debris
Shape & HBR
Unknown shape, 17.7 m
Radar Cross Section
Large (>1 m²)

Expand to show TLE details & history
Last TLE update: 23 hours ago

TLE from 23 hours ago
0 STARLINK-36958
1 68163U 26049X   26170.95241657  .00035509  00000-0  10953-2 0  9992
2 68163  97.2841 192.1596 0001224 126.2720 233.8636 15.33496139 15314
Epoch: 2026-06-19T22:51Z
TLE epoch observation values (Epoch: 2026-06-19T22:51:28.791Z)
Latitude
-0.00003°
Longitude
-58.88437°
Altitude
468.997 km
Speed
7.631 km/s
True Right ascension
12h 48m 38s
True Declination
0° 00' 00"
Sunlit
Object was in daylight at epoch
Visualization orbit readout
Latitude
Unknown
Longitude
Unknown
Altitude
Unknown
Speed
Unknown
Apparent Right ascension
Unknown
Apparent Declination
Unknown
Sunlit
N/A
Visualization observer readout
Local Sidereal Time
08:33:27
Azimuth
Unknown
Elevation
Unknown
Doppler factor
Unknown
Orbital elements
Apogee altitude
463.171 km
Perigee altitude
461.496 km
Semi-major axis
6,840.471 km
Eccentricity
0.00012
Inclination
97.2841°
RAAN
192.1596°
Arg. of periapsis
126.272°
True anomaly
233.85227°
Mean anomaly
233.8636°
Eccentric anomaly
233.85794°
Mean motion
3.83631 °/min
Orbital period
93.84 mins
BSTAR
0.0010953
Loading maneuver chart data...
Computing Atmospheric mass density...
Loading historical data...
Loading historical data...
Loading historical data...
Loading historical data...
Loading historical data...
Loading historical data...
Loading historical data...

Documentation

Showing up to 5 results
|